Location: LDNL
(36.4545°S, 141.6685°E)
Time: 14:12:39
(UTC+10:00)

Oscar 19 - Visible Passes

Search period start: 08 June 2023 00:00
Search period end: 18 June 2023 00:00
Orbit: 773 x 789 km, 98.8° (Epoch: 07 June)

Date Brightness Start Highest point End Pass type
(mag) Time Alt. Az. Time Alt. Az. Time Alt. Az.
09 Jun 13.2 18:12:02 10° SSW 18:15:13 16° WSW 18:18:22 10° W visible
12 Jun 13.2 18:14:49 10° SSW 18:17:49 16° WSW 18:20:50 10° W visible
15 Jun 13.3 18:17:35 10° SSW 18:20:26 15° WSW 18:23:17 10° W visible
16 Jun 12.6 17:44:07 10° S 17:48:35 29° WSW 17:53:03 10° NW visible
